• Em Portugal
  • Lista de países
  • Para 7 dias
  • Temperatura da água
  • Mapas de satélite
  • Mapa do tempo
  • Widgets de tempo
  • user-avatar
    Iniciar Sessão

    Previsão horária em Boriskovo

    Hoje, 21 Setembro, Sexta-feira

    Tempo Temperatura Precipitação Vento Pressão Humidade
    00:00 +16°C° 0 mm 2 m/s 746 mmHg 86%
    01:00 +16°C° 0 mm 2 m/s 746 mmHg 87%
    02:00 +15°C° 0 mm 2 m/s 746 mmHg 89%
    03:00 +15°C° 0 mm 2 m/s 746 mmHg 90%
    04:00 +15°C° 0 mm 2 m/s 746 mmHg 90%
    05:00 +15°C° 0 mm 2 m/s 746 mmHg 91%
    06:00 +16°C° 0 mm 2 m/s 746 mmHg 87%
    07:00 +17°C° 0 mm 3 m/s 746 mmHg 83%
    08:00 +18°C° 0 mm 3 m/s 746 mmHg 80%
    09:00 +20°C° 0 mm 3 m/s 746 mmHg 74%
    10:00 +21°C° 0 mm 3 m/s 746 mmHg 69%
    11:00 +24°C° 0 mm 3 m/s 746 mmHg 63%
    12:00 +25°C° 0 mm 3 m/s 746 mmHg 60%
    13:00 +26°C° 0 mm 4 m/s 746 mmHg 56%
    14:00 +27°C° 0 mm 4 m/s 746 mmHg 53%
    15:00 +26°C° 0 mm 3 m/s 745 mmHg 58%
    16:00 +25°C° 0 mm 3 m/s 745 mmHg 63%
    17:00 +24°C° 0 mm 2 m/s 745 mmHg 68%
    18:00 +22°C° 0 mm 3 m/s 744 mmHg 71%
    19:00 +20°C° 0 mm 3 m/s 744 mmHg 75%
    20:00 +19°C° 0 mm 3 m/s 744 mmHg 78%
    21:00 +19°C° 0 mm 3 m/s 743 mmHg 77%
    22:00 +18°C° 0 mm 3 m/s 743 mmHg 75%
    23:00 +18°C° 0 mm 4 m/s 743 mmHg 73%

    Amanhã, 22 Setembro, Sábado

    Tempo Temperatura Precipitação Vento Pressão Humidade
    00:00 +18°C° 0 mm 4 m/s 742 mmHg 72%
    01:00 +18°C° 0 mm 4 m/s 742 mmHg 71%
    02:00 +18°C° 0 mm 4 m/s 741 mmHg 71%
    03:00 +16°C° 0 mm 5 m/s 741 mmHg 71%
    04:00 +16°C° 0 mm 5 m/s 740 mmHg 71%
    05:00 +16°C° 0 mm 5 m/s 739 mmHg 72%
    06:00 +16°C° 0 mm 5 m/s 739 mmHg 70%
    07:00 +17°C° 0 mm 5 m/s 739 mmHg 69%
    08:00 +17°C° 0 mm 6 m/s 739 mmHg 67%
    09:00 +17°C° 0.1 mm 5 m/s 739 mmHg 69%
    10:00 +16°C° 0.1 mm 5 m/s 740 mmHg 71%
    11:00 +16°C° 0.1 mm 5 m/s 740 mmHg 73%
    12:00 +14°C° 0.1 mm 4 m/s 740 mmHg 76%
    13:00 +13°C° 0.1 mm 4 m/s 741 mmHg 78%
    14:00 +11°C° 0.1 mm 3 m/s 741 mmHg 81%
    15:00 +11°C° 0.2 mm 3 m/s 741 mmHg 83%
    16:00 +11°C° 0.2 mm 4 m/s 741 mmHg 85%
    17:00 +11°C° 0.2 mm 4 m/s 742 mmHg 88%
    18:00 +11°C° 0.1 mm 4 m/s 742 mmHg 88%
    19:00 +10°C° 0.1 mm 3 m/s 742 mmHg 88%
    20:00 +10°C° 0.1 mm 3 m/s 742 mmHg 88%
    21:00 +10°C° 0 mm 3 m/s 742 mmHg 88%
    22:00 +10°C° 0 mm 3 m/s 741 mmHg 88%
    23:00 +10°C° 0 mm 3 m/s 741 mmHg 88%

    Depois de amanhã, 23 Setembro, Domingo

    Tempo Temperatura Precipitação Vento Pressão Humidade
    00:00 +9°C° 0 mm 3 m/s 741 mmHg 90%
    01:00 +9°C° 0 mm 3 m/s 741 mmHg 91%
    02:00 +8°C° 0 mm 2 m/s 741 mmHg 93%
    03:00 +8°C° 0 mm 2 m/s 741 mmHg 94%
    04:00 +7°C° 0 mm 3 m/s 740 mmHg 96%
    05:00 +7°C° 0 mm 3 m/s 740 mmHg 97%
    06:00 +7°C° 0 mm 3 m/s 740 mmHg 93%
    07:00 +8°C° 0 mm 3 m/s 739 mmHg 90%
    08:00 +8°C° 0 mm 4 m/s 739 mmHg 86%
    09:00 +10°C° 0 mm 4 m/s 739 mmHg 80%
    10:00 +11°C° 0 mm 4 m/s 739 mmHg 74%
    11:00 +12°C° 0 mm 5 m/s 739 mmHg 67%
    12:00 +13°C° 0.3 mm 5 m/s 739 mmHg 66%
    13:00 +13°C° 0.3 mm 5 m/s 739 mmHg 65%
    14:00 +13°C° 0.3 mm 5 m/s 739 mmHg 64%
    15:00 +12°C° 0.2 mm 5 m/s 739 mmHg 69%
    16:00 +11°C° 0.2 mm 4 m/s 738 mmHg 73%
    17:00 +11°C° 0.2 mm 4 m/s 738 mmHg 78%
    18:00 +10°C° 0.1 mm 4 m/s 738 mmHg 82%
    19:00 +8°C° 0.1 mm 4 m/s 738 mmHg 85%
    20:00 +7°C° 0.1 mm 4 m/s 738 mmHg 88%
    21:00 +7°C° 0.2 mm 4 m/s 738 mmHg 90%
    22:00 +7°C° 0.2 mm 4 m/s 738 mmHg 91%
    23:00 +7°C° 0.2 mm 4 m/s 738 mmHg 92%

    24 Setembro, Segunda-feira

    Tempo Temperatura Precipitação Vento Pressão Humidade
    00:00 +7°C° 0 mm 4 m/s 738 mmHg 93%
    01:00 +7°C° 0 mm 3 m/s 738 mmHg 94%
    02:00 +7°C° 0 mm 3 m/s 737 mmHg 95%
    03:00 +7°C° 0 mm 3 m/s 737 mmHg 95%
    04:00 +5°C° 0 mm 3 m/s 737 mmHg 95%
    05:00 +5°C° 0 mm 3 m/s 737 mmHg 96%
    06:00 +7°C° 0 mm 3 m/s 737 mmHg 94%
    07:00 +7°C° 0 mm 2 m/s 737 mmHg 93%
    08:00 +7°C° 0 mm 2 m/s 737 mmHg 91%
    09:00 +8°C° 0 mm 2 m/s 737 mmHg 88%
    10:00 +10°C° 0 mm 1 m/s 737 mmHg 84%
    11:00 +10°C° 0 mm 1 m/s 737 mmHg 81%
    12:00 +11°C° 0.1 mm 1 m/s 737 mmHg 80%
    13:00 +11°C° 0.1 mm 1 m/s 737 mmHg 79%
    14:00 +11°C° 0.1 mm 1 m/s 737 mmHg 77%
    15:00 +10°C° 0.1 mm 2 m/s 737 mmHg 80%
    16:00 +9°C° 0.1 mm 2 m/s 737 mmHg 82%
    17:00 +9°C° 0.1 mm 2 m/s 737 mmHg 84%
    18:00 +8°C° 0.2 mm 2 m/s 737 mmHg 85%
    19:00 +8°C° 0.2 mm 3 m/s 737 mmHg 86%
    20:00 +7°C° 0.2 mm 3 m/s 737 mmHg 88%
    21:00 +7°C° 0 mm 3 m/s 737 mmHg 87%
    22:00 +6°C° 0 mm 4 m/s 738 mmHg 86%
    23:00 +6°C° 0 mm 4 m/s 738 mmHg 85%

    25 Setembro, Terça-feira

    Tempo Temperatura Precipitação Vento Pressão Humidade
    00:00 +5°C° 0 mm 4 m/s 738 mmHg 84%
    01:00 +5°C° 0 mm 4 m/s 738 mmHg 84%
    02:00 +5°C° 0 mm 4 m/s 739 mmHg 84%
    03:00 +4°C° 0 mm 4 m/s 739 mmHg 85%
    04:00 +4°C° 0 mm 4 m/s 740 mmHg 86%
    05:00 +4°C° 0 mm 4 m/s 740 mmHg 87%
    06:00 +3°C° 0 mm 5 m/s 740 mmHg 84%
    07:00 +5°C° 0 mm 5 m/s 741 mmHg 82%
    08:00 +5°C° 0 mm 5 m/s 741 mmHg 79%
    09:00 +5°C° 0 mm 6 m/s 742 mmHg 74%
    10:00 +7°C° 0 mm 6 m/s 742 mmHg 69%
    11:00 +7°C° 0 mm 6 m/s 742 mmHg 63%
    12:00 +8°C° 0.1 mm 6 m/s 743 mmHg 61%
    13:00 +8°C° 0.1 mm 7 m/s 743 mmHg 59%
    14:00 +8°C° 0.1 mm 7 m/s 743 mmHg 57%
    15:00 +7°C° 0 mm 6 m/s 743 mmHg 56%
    16:00 +7°C° 0 mm 5 m/s 744 mmHg 55%
    17:00 +6°C° 0 mm 5 m/s 744 mmHg 54%
    18:00 +5°C° 0 mm 4 m/s 745 mmHg 56%
    19:00 +4°C° 0 mm 4 m/s 745 mmHg 58%
    20:00 +3°C° 0 mm 3 m/s 745 mmHg 61%
    21:00 +2°C° 0 mm 3 m/s 745 mmHg 64%
    22:00 +3°C° 0 mm 2 m/s 745 mmHg 67%
    23:00 +2°C° 0 mm 2 m/s 745 mmHg 70%

    26 Setembro, Quarta-feira

    Tempo Temperatura Precipitação Vento Pressão Humidade
    00:00 +2°C° 0.2 mm 2 m/s 744 mmHg 74%
    01:00 +2°C° 0.2 mm 2 m/s 744 mmHg 79%
    02:00 +2°C° 0.2 mm 2 m/s 744 mmHg 83%
    03:00 +3°C° 0.5 mm 2 m/s 743 mmHg 86%
    04:00 +3°C° 0.5 mm 2 m/s 743 mmHg 90%
    05:00 +4°C° 0.5 mm 2 m/s 743 mmHg 94%
    06:00 +4°C° 0.1 mm 2 m/s 743 mmHg 93%
    07:00 +5°C° 0.1 mm 2 m/s 743 mmHg 92%
    08:00 +5°C° 0.1 mm 2 m/s 743 mmHg 91%
    09:00 +5°C° 0.1 mm 3 m/s 743 mmHg 85%
    10:00 +7°C° 0.1 mm 3 m/s 743 mmHg 80%
    11:00 +8°C° 0.1 mm 3 m/s 743 mmHg 75%
    12:00 +9°C° 0.2 mm 3 m/s 743 mmHg 71%
    13:00 +9°C° 0.2 mm 3 m/s 743 mmHg 67%
    14:00 +10°C° 0.2 mm 4 m/s 743 mmHg 64%
    15:00 +9°C° 0.1 mm 3 m/s 743 mmHg 66%
    16:00 +8°C° 0.1 mm 2 m/s 744 mmHg 68%
    17:00 +8°C° 0.1 mm 2 m/s 744 mmHg 71%
    18:00 +7°C° 0 mm 2 m/s 744 mmHg 75%
    19:00 +6°C° 0 mm 1 m/s 745 mmHg 79%
    20:00 +5°C° 0 mm 1 m/s 745 mmHg 83%
    21:00 +5°C° 0 mm 1 m/s 745 mmHg 84%
    22:00 +4°C° 0 mm 1 m/s 746 mmHg 85%
    23:00 +3°C° 0 mm 2 m/s 746 mmHg 86%
    Mostrar mais